Time,TemperatureF,DewpointF,PressureIn,WindDirection,WindDirectionDegrees,WindSpeedMPH,WindSpeedGustMPH,Humidity,HourlyPrecipIn,Conditions,Clouds,dailyrainin,SoftwareType,DateUTC
2013-01-08 00:00:00,23.4,16.7,30.39,SSE,149,2.0,2.0,75,0.00,,,0.00,WeatherCatV1.12B45,2013-01-08 05:00:00,
2013-01-08 00:05:00,23.4,16.7,30.39,SSE,149,0.0,5.0,75,0.00,,,0.00,WeatherCatV1.12B45,2013-01-08 05:05:00,
2013-01-08 00:10:00,23.6,17.2,30.39,SSW,207,0.0,0.0,76,0.00,,,0.00,WeatherCatV1.12B45,2013-01-08 05:10:00,
2013-01-08 00:15:00,28.5,17.9,30.40,West,266,0.0,0.0,64,0.00,,,0.00,WeatherCatV1.12B45,2013-01-08 05:15:00,
2013-01-08 00:20:00,28.1,18.2,30.40,West,266,0.0,0.0,66,0.00,,,0.00,WeatherCatV1.12B45,2013-01-08 05:20:00,
2013-01-08 00:25:00,27.8,18.3,30.40,West,267,0.0,0.0,67,0.00,,,0.00,WeatherCatV1.12B45,2013-01-08 05:25:00,
2013-01-08 00:30:00,27.4,18.3,30.40,West,267,0.0,0.0,68,0.00,,,0.00,WeatherCatV1.12B45,2013-01-08 05:30:00,
2013-01-08 00:35:00,29.0,17.6,30.39,West,266,0.0,0.0,62,0.00,,,0.00,WeatherCatV1.12B45,2013-01-08 05:35:00,
2013-01-08 00:40:00,28.7,17.7,30.40,West,266,0.0,0.0,63,0.00,,,0.00,WeatherCatV1.12B45,2013-01-08 05:40:00,
2013-01-08 00:43:00,27.0,18.2,30.40,West,267,0.0,0.0,69,0.00,,,0.00,WeatherCatV1.12B45,2013-01-08 05:43:00,
2013-01-08 00:45:00,28.4,18.2,30.40,West,266,0.0,0.0,65,0.00,,,0.00,WeatherCatV1.12B45,2013-01-08 05:45:00,
2013-01-08 00:50:00,28.1,18.2,30.40,West,266,0.0,0.0,66,0.00,,,0.00,WeatherCatV1.12B45,2013-01-08 05:50:00,
2013-01-08 00:55:00,27.7,18.2,30.40,West,267,0.0,0.0,67,0.00,,,0.00,WeatherCatV1.12B45,2013-01-08 05:55:00,
2013-01-08 01:00:00,27.2,18.1,30.40,West,267,0.0,0.0,68,0.00,,,0.00,WeatherCatV1.12B45,2013-01-08 06:00:00,
2013-01-08 01:05:00,29.0,17.6,30.39,West,266,0.0,0.0,62,0.00,,,0.00,WeatherCatV1.12B45,2013-01-08 06:05:00,
2013-01-08 01:10:00,28.7,17.7,30.40,West,266,0.0,0.0,63,0.00,,,0.00,WeatherCatV1.12B45,2013-01-08 06:10:00,
2013-01-08 01:11:00,27.0,18.2,30.40,West,267,0.0,0.0,69,0.00,,,0.00,WeatherCatV1.12B45,2013-01-08 06:11:00,
2013-01-08 01:15:00,28.4,18.2,30.40,West,266,0.0,0.0,65,0.00,,,0.00,WeatherCatV1.12B45,2013-01-08 06:15:00,
2013-01-08 01:20:00,28.1,18.2,30.40,West,266,0.0,0.0,66,0.00,,,0.00,WeatherCatV1.12B45,2013-01-08 06:20:00,
2013-01-08 01:25:00,27.7,18.2,30.40,West,267,0.0,0.0,67,0.00,,,0.00,WeatherCatV1.12B45,2013-01-08 06:25:00,
2013-01-08 01:30:00,27.2,18.1,30.40,West,267,0.0,0.0,68,0.00,,,0.00,WeatherCatV1.12B45,2013-01-08 06:30:00,
2013-01-08 01:35:00,28.9,17.5,30.40,West,266,0.0,0.0,62,0.00,,,0.00,WeatherCatV1.12B45,2013-01-08 06:35:00,
2013-01-08 01:40:00,28.6,18.0,30.40,West,266,0.0,0.0,64,0.00,,,0.00,WeatherCatV1.12B45,2013-01-08 06:40:00,
2013-01-08 01:41:00,27.0,18.2,30.40,West,267,0.0,0.0,69,0.00,,,0.00,WeatherCatV1.12B45,2013-01-08 06:41:00,
2013-01-08 01:45:00,28.4,18.2,30.40,West,266,0.0,0.0,65,0.00,,,0.00,WeatherCatV1.12B45,2013-01-08 06:45:00,
2013-01-08 01:50:00,28.1,18.2,30.40,West,266,0.0,0.0,66,0.00,,,0.00,WeatherCatV1.12B45,2013-01-08 06:50:00,
2013-01-08 01:55:00,27.7,18.2,30.40,West,267,0.0,0.0,67,0.00,,,0.00,WeatherCatV1.12B45,2013-01-08 06:55:00,
2013-01-08 02:00:00,27.2,18.1,30.40,West,267,0.0,0.0,68,0.00,,,0.00,WeatherCatV1.12B45,2013-01-08 07:00:00,
2013-01-08 02:10:00,28.7,17.7,30.40,West,266,0.0,0.0,63,0.00,,,0.00,WeatherCatV1.12B45,2013-01-08 07:10:00,
2013-01-08 02:11:00,27.0,18.2,30.40,West,267,0.0,0.0,69,0.00,,,0.00,WeatherCatV1.12B45,2013-01-08 07:11:00,
2013-01-08 02:15:00,28.5,17.9,30.40,West,266,0.0,0.0,64,0.00,,,0.00,WeatherCatV1.12B45,2013-01-08 07:15:00,
2013-01-08 02:20:00,28.1,18.2,30.40,West,266,0.0,0.0,66,0.00,,,0.00,WeatherCatV1.12B45,2013-01-08 07:20:00,
2013-01-08 02:25:00,27.8,18.3,30.40,West,267,0.0,0.0,67,0.00,,,0.00,WeatherCatV1.12B45,2013-01-08 07:25:00,
2013-01-08 02:30:00,27.4,18.3,30.40,West,267,0.0,0.0,68,0.00,,,0.00,WeatherCatV1.12B45,2013-01-08 07:30:00,
2013-01-08 02:40:00,28.7,17.7,30.40,West,266,0.0,0.0,63,0.00,,,0.00,WeatherCatV1.12B45,2013-01-08 07:40:00,
2013-01-08 02:43:00,27.0,18.2,30.40,West,267,0.0,0.0,69,0.00,,,0.00,WeatherCatV1.12B45,2013-01-08 07:43:00,
2013-01-08 02:45:00,28.4,17.8,30.40,West,266,0.0,0.0,64,0.00,,,0.00,WeatherCatV1.12B45,2013-01-08 07:45:00,
2013-01-08 02:50:00,28.1,18.2,30.40,West,266,0.0,0.0,66,0.00,,,0.00,WeatherCatV1.12B45,2013-01-08 07:50:00,
2013-01-08 02:55:00,27.7,18.2,30.40,West,267,0.0,0.0,67,0.00,,,0.00,WeatherCatV1.12B45,2013-01-08 07:55:00,
2013-01-08 03:00:00,27.4,18.3,30.40,West,267,0.0,0.0,68,0.00,,,0.00,WeatherCatV1.12B45,2013-01-08 08:00:00,
2013-01-08 03:10:00,28.7,17.7,30.40,West,266,0.0,0.0,63,0.00,,,0.00,WeatherCatV1.12B45,2013-01-08 08:10:00,
2013-01-08 03:13:00,27.0,18.2,30.40,West,267,0.0,0.0,69,0.00,,,0.00,WeatherCatV1.12B45,2013-01-08 08:13:00,
2013-01-08 03:15:00,28.4,17.8,30.40,West,266,0.0,0.0,64,0.00,,,0.00,WeatherCatV1.12B45,2013-01-08 08:15:00,
2013-01-08 03:20:00,28.1,18.2,30.40,West,266,0.0,0.0,66,0.00,,,0.00,WeatherCatV1.12B45,2013-01-08 08:20:00,
2013-01-08 03:25:00,27.7,18.2,30.40,West,267,0.0,0.0,67,0.00,,,0.00,WeatherCatV1.12B45,2013-01-08 08:25:00,
2013-01-08 03:30:00,27.3,18.2,30.40,West,267,0.0,0.0,68,0.00,,,0.00,WeatherCatV1.12B45,2013-01-08 08:30:00,
2013-01-08 03:40:00,28.7,17.7,30.40,West,266,0.0,0.0,63,0.00,,,0.00,WeatherCatV1.12B45,2013-01-08 08:40:00,
2013-01-08 03:42:00,27.0,18.2,30.40,West,267,0.0,0.0,69,0.00,,,0.00,WeatherCatV1.12B45,2013-01-08 08:42:00,
2013-01-08 03:45:00,28.4,17.8,30.40,West,266,0.0,0.0,64,0.00,,,0.00,WeatherCatV1.12B45,2013-01-08 08:45:00,
2013-01-08 03:50:00,28.1,18.2,30.40,West,266,0.0,0.0,66,0.00,,,0.00,WeatherCatV1.12B45,2013-01-08 08:50:00,
2013-01-08 03:55:00,27.7,18.2,30.40,West,267,0.0,0.0,67,0.00,,,0.00,WeatherCatV1.12B45,2013-01-08 08:55:00,
2013-01-08 04:00:00,27.3,18.2,30.40,West,267,0.0,0.0,68,0.00,,,0.00,WeatherCatV1.12B45,2013-01-08 09:00:00,
2013-01-08 04:10:00,28.7,17.7,30.40,West,266,0.0,0.0,63,0.00,,,0.00,WeatherCatV1.12B45,2013-01-08 09:10:00,
2013-01-08 04:12:00,27.0,18.2,30.40,West,267,0.0,0.0,69,0.00,,,0.00,WeatherCatV1.12B45,2013-01-08 09:12:00,
2013-01-08 04:15:00,28.4,17.8,30.40,West,266,0.0,0.0,64,0.00,,,0.00,WeatherCatV1.12B45,2013-01-08 09:15:00,
2013-01-08 04:20:00,28.1,18.2,30.40,West,266,0.0,0.0,66,0.00,,,0.00,WeatherCatV1.12B45,2013-01-08 09:20:00,
2013-01-08 04:25:00,27.7,18.2,30.40,West,267,0.0,0.0,67,0.00,,,0.00,WeatherCatV1.12B45,2013-01-08 09:25:00,
2013-01-08 04:30:00,27.3,18.2,30.40,West,267,0.0,0.0,68,0.00,,,0.00,WeatherCatV1.12B45,2013-01-08 09:30:00,
2013-01-08 04:40:00,28.7,17.7,30.40,West,266,0.0,0.0,63,0.00,,,0.00,WeatherCatV1.12B45,2013-01-08 09:40:00,
2013-01-08 04:42:00,27.0,18.2,30.40,West,267,0.0,0.0,69,0.00,,,0.00,WeatherCatV1.12B45,2013-01-08 09:42:00,
2013-01-08 04:45:00,28.4,17.8,30.40,West,266,0.0,0.0,64,0.00,,,0.00,WeatherCatV1.12B45,2013-01-08 09:45:00,
2013-01-08 04:50:00,28.1,18.2,30.40,West,266,0.0,0.0,66,0.00,,,0.00,WeatherCatV1.12B45,2013-01-08 09:50:00,
2013-01-08 04:55:00,27.7,18.2,30.40,West,267,0.0,0.0,67,0.00,,,0.00,WeatherCatV1.12B45,2013-01-08 09:55:00,
2013-01-08 05:00:00,27.3,18.2,30.40,West,267,0.0,0.0,68,0.00,,,0.00,WeatherCatV1.12B45,2013-01-08 10:00:00,
2013-01-08 05:10:00,28.7,17.7,30.40,West,266,0.0,0.0,63,0.00,,,0.00,WeatherCatV1.12B45,2013-01-08 10:10:00,
2013-01-08 05:12:00,27.0,18.2,30.40,West,267,0.0,0.0,69,0.00,,,0.00,WeatherCatV1.12B45,2013-01-08 10:12:00,
2013-01-08 05:15:00,28.4,17.8,30.40,West,266,0.0,0.0,64,0.00,,,0.00,WeatherCatV1.12B45,2013-01-08 10:15:00,
2013-01-08 05:20:00,28.1,18.2,30.40,West,266,0.0,0.0,66,0.00,,,0.00,WeatherCatV1.12B45,2013-01-08 10:20:00,
2013-01-08 05:25:00,27.7,18.2,30.40,West,267,0.0,0.0,67,0.00,,,0.00,WeatherCatV1.12B45,2013-01-08 10:25:00,
2013-01-08 05:30:00,27.3,18.2,30.40,West,267,0.0,0.0,68,0.00,,,0.00,WeatherCatV1.12B45,2013-01-08 10:30:00,
2013-01-08 05:40:00,28.7,17.7,30.40,West,266,0.0,0.0,63,0.00,,,0.00,WeatherCatV1.12B45,2013-01-08 10:40:00,
2013-01-08 05:42:00,27.0,18.2,30.40,West,267,0.0,0.0,69,0.00,,,0.00,WeatherCatV1.12B45,2013-01-08 10:42:00,
2013-01-08 05:45:00,28.4,17.8,30.40,West,266,0.0,0.0,64,0.00,,,0.00,WeatherCatV1.12B45,2013-01-08 10:45:00,
2013-01-08 05:50:00,28.1,18.2,30.40,West,266,0.0,0.0,66,0.00,,,0.00,WeatherCatV1.12B45,2013-01-08 10:50:00,
2013-01-08 05:55:00,27.7,18.2,30.40,West,267,0.0,0.0,67,0.00,,,0.00,WeatherCatV1.12B45,2013-01-08 10:55:00,
2013-01-08 06:00:00,27.3,18.2,30.40,West,267,0.0,0.0,68,0.00,,,0.00,WeatherCatV1.12B45,2013-01-08 11:00:00,
2013-01-08 06:05:00,29.0,17.6,30.39,West,266,0.0,0.0,62,0.00,,,0.00,WeatherCatV1.12B45,2013-01-08 11:05:00,
2013-01-08 06:10:00,28.7,17.7,30.40,West,266,0.0,0.0,63,0.00,,,0.00,WeatherCatV1.12B45,2013-01-08 11:10:00,
2013-01-08 06:12:00,27.0,18.2,30.40,West,267,0.0,0.0,69,0.00,,,0.00,WeatherCatV1.12B45,2013-01-08 11:12:00,
2013-01-08 06:15:00,28.4,18.2,30.40,West,266,0.0,0.0,65,0.00,,,0.00,WeatherCatV1.12B45,2013-01-08 11:15:00,
2013-01-08 06:20:00,28.1,18.2,30.40,West,266,0.0,0.0,66,0.00,,,0.00,WeatherCatV1.12B45,2013-01-08 11:20:00,
2013-01-08 06:25:00,27.7,18.2,30.40,West,267,0.0,0.0,67,0.00,,,0.00,WeatherCatV1.12B45,2013-01-08 11:25:00,
2013-01-08 06:30:00,27.3,18.2,30.40,West,267,0.0,0.0,68,0.00,,,0.00,WeatherCatV1.12B45,2013-01-08 11:30:00,
2013-01-08 06:35:00,29.0,17.6,30.39,West,266,0.0,0.0,62,0.00,,,0.00,WeatherCatV1.12B45,2013-01-08 11:35:00,
2013-01-08 06:40:00,28.7,17.7,30.40,West,266,0.0,0.0,63,0.00,,,0.00,WeatherCatV1.12B45,2013-01-08 11:40:00,
2013-01-08 06:42:00,27.0,18.2,30.40,West,267,0.0,0.0,69,0.00,,,0.00,WeatherCatV1.12B45,2013-01-08 11:42:00,
2013-01-08 06:45:00,28.4,18.2,30.40,West,266,0.0,0.0,65,0.00,,,0.00,WeatherCatV1.12B45,2013-01-08 11:45:00,
2013-01-08 06:50:00,28.1,18.2,30.40,West,266,0.0,0.0,66,0.00,,,0.00,WeatherCatV1.12B45,2013-01-08 11:50:00,
2013-01-08 06:55:00,27.7,18.2,30.40,West,267,0.0,0.0,67,0.00,,,0.00,WeatherCatV1.12B45,2013-01-08 11:55:00,
2013-01-08 07:00:00,27.2,18.1,30.40,West,267,0.0,0.0,68,0.00,,,0.00,WeatherCatV1.12B45,2013-01-08 12:00:00,
2013-01-08 07:05:00,29.0,17.6,30.39,West,266,0.0,0.0,62,0.00,,,0.00,WeatherCatV1.12B45,2013-01-08 12:05:00,
2013-01-08 07:10:00,28.7,17.7,30.40,West,266,0.0,0.0,63,0.00,,,0.00,WeatherCatV1.12B45,2013-01-08 12:10:00,
2013-01-08 07:12:00,27.0,18.2,30.40,West,267,0.0,0.0,69,0.00,,,0.00,WeatherCatV1.12B45,2013-01-08 12:12:00,
2013-01-08 07:15:00,28.4,18.2,30.40,West,266,0.0,0.0,65,0.00,,,0.00,WeatherCatV1.12B45,2013-01-08 12:15:00,
2013-01-08 07:20:00,28.1,18.2,30.40,West,266,0.0,0.0,66,0.00,,,0.00,WeatherCatV1.12B45,2013-01-08 12:20:00,
2013-01-08 07:25:00,27.7,18.2,30.40,West,267,0.0,0.0,67,0.00,,,0.00,WeatherCatV1.12B45,2013-01-08 12:25:00,
2013-01-08 07:30:00,27.2,18.1,30.40,West,267,0.0,0.0,68,0.00,,,0.00,WeatherCatV1.12B45,2013-01-08 12:30:00,
2013-01-08 07:35:00,29.0,17.6,30.39,West,266,0.0,0.0,62,0.00,,,0.00,WeatherCatV1.12B45,2013-01-08 12:35:00,
2013-01-08 07:40:00,28.7,17.7,30.40,West,266,0.0,0.0,63,0.00,,,0.00,WeatherCatV1.12B45,2013-01-08 12:40:00,
2013-01-08 07:41:00,27.0,18.2,30.40,West,267,0.0,0.0,69,0.00,,,0.00,WeatherCatV1.12B45,2013-01-08 12:41:00,
2013-01-08 07:45:00,28.4,18.2,30.40,West,266,0.0,0.0,65,0.00,,,0.00,WeatherCatV1.12B45,2013-01-08 12:45:00,
2013-01-08 07:50:00,28.1,18.2,30.40,West,266,0.0,0.0,66,0.00,,,0.00,WeatherCatV1.12B45,2013-01-08 12:50:00,
2013-01-08 07:55:00,27.7,18.2,30.40,West,267,0.0,0.0,67,0.00,,,0.00,WeatherCatV1.12B45,2013-01-08 12:55:00,
2013-01-08 08:00:00,27.2,18.1,30.40,West,267,0.0,0.0,68,0.00,,,0.00,WeatherCatV1.12B45,2013-01-08 13:00:00,
2013-01-08 08:05:00,29.0,17.6,30.39,West,266,0.0,0.0,62,0.00,,,0.00,WeatherCatV1.12B45,2013-01-08 13:05:00,
2013-01-08 08:10:00,28.7,17.7,30.40,West,266,0.0,0.0,63,0.00,,,0.00,WeatherCatV1.12B45,2013-01-08 13:10:00,
2013-01-08 08:11:00,27.0,18.2,30.40,West,267,0.0,0.0,69,0.00,,,0.00,WeatherCatV1.12B45,2013-01-08 13:11:00,
2013-01-08 08:15:00,28.4,18.2,30.40,West,266,0.0,0.0,65,0.00,,,0.00,WeatherCatV1.12B45,2013-01-08 13:15:00,
2013-01-08 08:20:00,28.1,18.2,30.40,West,266,0.0,0.0,66,0.00,,,0.00,WeatherCatV1.12B45,2013-01-08 13:20:00,
2013-01-08 08:25:00,27.7,18.2,30.40,West,267,0.0,0.0,67,0.00,,,0.00,WeatherCatV1.12B45,2013-01-08 13:25:00,
2013-01-08 08:30:00,27.2,18.1,30.40,West,267,0.0,0.0,68,0.00,,,0.00,WeatherCatV1.12B45,2013-01-08 13:30:00,
2013-01-08 08:35:00,29.0,17.6,30.39,West,266,0.0,0.0,62,0.00,,,0.00,WeatherCatV1.12B45,2013-01-08 13:35:00,
2013-01-08 08:40:00,28.7,17.7,30.40,West,266,0.0,0.0,63,0.00,,,0.00,WeatherCatV1.12B45,2013-01-08 13:40:00,
2013-01-08 08:41:00,27.0,18.2,30.40,West,267,0.0,0.0,69,0.00,,,0.00,WeatherCatV1.12B45,2013-01-08 13:41:00,
2013-01-08 08:45:00,28.4,18.2,30.40,West,266,0.0,0.0,65,0.00,,,0.00,WeatherCatV1.12B45,2013-01-08 13:45:00,
2013-01-08 08:50:00,28.1,18.2,30.40,West,266,0.0,0.0,66,0.00,,,0.00,WeatherCatV1.12B45,2013-01-08 13:50:00,
2013-01-08 08:55:00,27.7,18.2,30.40,West,267,0.0,0.0,67,0.00,,,0.00,WeatherCatV1.12B45,2013-01-08 13:55:00,
2013-01-08 09:00:00,27.2,18.1,30.40,West,267,0.0,0.0,68,0.00,,,0.00,WeatherCatV1.12B45,2013-01-08 14:00:00,
2013-01-08 09:05:00,29.0,17.6,30.39,West,266,0.0,0.0,62,0.00,,,0.00,WeatherCatV1.12B45,2013-01-08 14:05:00,
2013-01-08 09:10:00,28.7,17.7,30.40,West,266,0.0,0.0,63,0.00,,,0.00,WeatherCatV1.12B45,2013-01-08 14:10:00,
2013-01-08 09:11:00,27.0,18.2,30.40,West,267,0.0,0.0,69,0.00,,,0.00,WeatherCatV1.12B45,2013-01-08 14:11:00,
2013-01-08 09:15:00,28.4,18.2,30.40,West,266,0.0,0.0,65,0.00,,,0.00,WeatherCatV1.12B45,2013-01-08 14:15:00,
2013-01-08 09:20:00,28.1,18.2,30.40,West,266,0.0,0.0,66,0.00,,,0.00,WeatherCatV1.12B45,2013-01-08 14:20:00,
2013-01-08 09:25:00,27.7,18.2,30.40,West,267,0.0,0.0,67,0.00,,,0.00,WeatherCatV1.12B45,2013-01-08 14:25:00,
2013-01-08 09:30:00,27.2,18.1,30.40,West,267,0.0,0.0,68,0.00,,,0.00,WeatherCatV1.12B45,2013-01-08 14:30:00,
2013-01-08 09:40:00,28.8,17.8,30.40,West,266,0.0,0.0,63,0.00,,,0.00,WeatherCatV1.12B45,2013-01-08 14:40:00,
2013-01-08 09:41:00,27.0,18.2,30.40,West,267,0.0,0.0,69,0.00,,,0.00,WeatherCatV1.12B45,2013-01-08 14:41:00,
2013-01-08 09:45:00,28.5,17.9,30.40,West,266,0.0,0.0,64,0.00,,,0.00,WeatherCatV1.12B45,2013-01-08 14:45:00,
2013-01-08 09:50:00,28.1,18.2,30.40,West,266,0.0,0.0,66,0.00,,,0.00,WeatherCatV1.12B45,2013-01-08 14:50:00,
2013-01-08 09:55:00,27.8,18.3,30.40,West,267,0.0,0.0,67,0.00,,,0.00,WeatherCatV1.12B45,2013-01-08 14:55:00,
2013-01-08 10:00:00,27.4,18.3,30.40,West,267,0.0,0.0,68,0.00,,,0.00,WeatherCatV1.12B45,2013-01-08 15:00:00,
2013-01-08 10:10:00,28.7,17.7,30.40,West,266,0.0,0.0,63,0.00,,,0.00,WeatherCatV1.12B45,2013-01-08 15:10:00,
2013-01-08 10:13:00,27.0,18.2,30.40,West,267,0.0,0.0,69,0.00,,,0.00,WeatherCatV1.12B45,2013-01-08 15:13:00,
2013-01-08 10:15:00,28.5,17.9,30.40,West,266,0.0,0.0,64,0.00,,,0.00,WeatherCatV1.12B45,2013-01-08 15:15:00,
2013-01-08 10:20:00,28.1,18.2,30.40,West,266,0.0,0.0,66,0.00,,,0.00,WeatherCatV1.12B45,2013-01-08 15:20:00,
2013-01-08 10:25:00,27.8,18.3,30.40,West,267,0.0,0.0,67,0.00,,,0.00,WeatherCatV1.12B45,2013-01-08 15:25:00,
2013-01-08 10:30:00,27.4,18.3,30.40,West,267,0.0,0.0,68,0.00,,,0.00,WeatherCatV1.12B45,2013-01-08 15:30:00,
2013-01-08 10:40:00,28.7,17.7,30.40,West,266,0.0,0.0,63,0.00,,,0.00,WeatherCatV1.12B45,2013-01-08 15:40:00,
2013-01-08 10:43:00,27.0,18.2,30.40,West,267,0.0,0.0,69,0.00,,,0.00,WeatherCatV1.12B45,2013-01-08 15:43:00,
2013-01-08 10:45:00,28.4,17.8,30.40,West,266,0.0,0.0,64,0.00,,,0.00,WeatherCatV1.12B45,2013-01-08 15:45:00,
2013-01-08 10:50:00,28.1,18.2,30.40,West,266,0.0,0.0,66,0.00,,,0.00,WeatherCatV1.12B45,2013-01-08 15:50:00,
2013-01-08 10:55:00,27.7,18.2,30.40,West,267,0.0,0.0,67,0.00,,,0.00,WeatherCatV1.12B45,2013-01-08 15:55:00,
2013-01-08 11:00:00,27.4,18.3,30.40,West,267,0.0,0.0,68,0.00,,,0.00,WeatherCatV1.12B45,2013-01-08 16:00:00,
2013-01-08 11:10:00,28.7,17.7,30.40,West,266,0.0,0.0,63,0.00,,,0.00,WeatherCatV1.12B45,2013-01-08 16:10:00,
2013-01-08 11:13:00,27.0,18.2,30.40,West,267,0.0,0.0,69,0.00,,,0.00,WeatherCatV1.12B45,2013-01-08 16:13:00,
2013-01-08 11:15:00,28.4,17.8,30.40,West,266,0.0,0.0,64,0.00,,,0.00,WeatherCatV1.12B45,2013-01-08 16:15:00,
2013-01-08 11:20:00,28.1,18.2,30.40,West,266,0.0,0.0,66,0.00,,,0.00,WeatherCatV1.12B45,2013-01-08 16:20:00,
2013-01-08 11:25:00,27.7,18.2,30.40,West,267,0.0,0.0,67,0.00,,,0.00,WeatherCatV1.12B45,2013-01-08 16:25:00,
2013-01-08 11:30:00,27.3,18.2,30.40,West,267,0.0,0.0,68,0.00,,,0.00,WeatherCatV1.12B45,2013-01-08 16:30:00,
2013-01-08 11:40:00,28.7,17.7,30.40,West,266,0.0,0.0,63,0.00,,,0.00,WeatherCatV1.12B45,2013-01-08 16:40:00,
2013-01-08 11:42:00,27.0,18.2,30.40,West,267,0.0,0.0,69,0.00,,,0.00,WeatherCatV1.12B45,2013-01-08 16:42:00,
2013-01-08 11:45:00,28.4,17.8,30.40,West,266,0.0,0.0,64,0.00,,,0.00,WeatherCatV1.12B45,2013-01-08 16:45:00,
2013-01-08 11:50:00,28.1,18.2,30.40,West,266,0.0,0.0,66,0.00,,,0.00,WeatherCatV1.12B45,2013-01-08 16:50:00,
2013-01-08 11:55:00,27.7,18.2,30.40,West,267,0.0,0.0,67,0.00,,,0.00,WeatherCatV1.12B45,2013-01-08 16:55:00,
2013-01-08 12:00:00,27.3,18.2,30.40,West,267,0.0,0.0,68,0.00,,,0.00,WeatherCatV1.12B45,2013-01-08 17:00:00,
2013-01-08 12:10:00,28.7,17.7,30.40,West,266,0.0,0.0,63,0.00,,,0.00,WeatherCatV1.12B45,2013-01-08 17:10:00,
2013-01-08 12:12:00,27.0,18.2,30.40,West,267,0.0,0.0,69,0.00,,,0.00,WeatherCatV1.12B45,2013-01-08 17:12:00,
2013-01-08 12:15:00,28.4,17.8,30.40,West,266,0.0,0.0,64,0.00,,,0.00,WeatherCatV1.12B45,2013-01-08 17:15:00,
2013-01-08 12:20:00,28.1,18.2,30.40,West,266,0.0,0.0,66,0.00,,,0.00,WeatherCatV1.12B45,2013-01-08 17:20:00,
2013-01-08 12:25:00,27.7,18.2,30.40,West,267,0.0,0.0,67,0.00,,,0.00,WeatherCatV1.12B45,2013-01-08 17:25:00,
2013-01-08 12:30:00,27.3,18.2,30.40,West,267,0.0,0.0,68,0.00,,,0.00,WeatherCatV1.12B45,2013-01-08 17:30:00,
2013-01-08 12:40:00,28.7,17.7,30.40,West,266,0.0,0.0,63,0.00,,,0.00,WeatherCatV1.12B45,2013-01-08 17:40:00,
2013-01-08 12:42:00,27.0,18.2,30.40,West,267,0.0,0.0,69,0.00,,,0.00,WeatherCatV1.12B45,2013-01-08 17:42:00,
2013-01-08 12:45:00,28.4,17.8,30.40,West,266,0.0,0.0,64,0.00,,,0.00,WeatherCatV1.12B45,2013-01-08 17:45:00,
2013-01-08 12:50:00,28.1,18.2,30.40,West,266,0.0,0.0,66,0.00,,,0.00,WeatherCatV1.12B45,2013-01-08 17:50:00,
2013-01-08 12:55:00,27.7,18.2,30.40,West,267,0.0,0.0,67,0.00,,,0.00,WeatherCatV1.12B45,2013-01-08 17:55:00,
2013-01-08 13:00:00,27.3,18.2,30.40,West,267,0.0,0.0,68,0.00,,,0.00,WeatherCatV1.12B45,2013-01-08 18:00:00,
2013-01-08 13:10:00,28.7,17.7,30.40,West,266,0.0,0.0,63,0.00,,,0.00,WeatherCatV1.12B45,2013-01-08 18:10:00,
2013-01-08 13:12:00,27.0,18.2,30.40,West,267,0.0,0.0,69,0.00,,,0.00,WeatherCatV1.12B45,2013-01-08 18:12:00,
2013-01-08 13:15:00,28.4,17.8,30.40,West,266,0.0,0.0,64,0.00,,,0.00,WeatherCatV1.12B45,2013-01-08 18:15:00,
2013-01-08 13:20:00,28.1,18.2,30.40,West,266,0.0,0.0,66,0.00,,,0.00,WeatherCatV1.12B45,2013-01-08 18:20:00,
2013-01-08 13:25:00,27.7,18.2,30.40,West,267,0.0,0.0,67,0.00,,,0.00,WeatherCatV1.12B45,2013-01-08 18:25:00,
2013-01-08 13:30:00,27.3,18.2,30.40,West,267,0.0,0.0,68,0.00,,,0.00,WeatherCatV1.12B45,2013-01-08 18:30:00,
2013-01-08 13:40:00,28.7,17.7,30.40,West,266,0.0,0.0,63,0.00,,,0.00,WeatherCatV1.12B45,2013-01-08 18:40:00,
2013-01-08 13:42:00,27.0,18.2,30.40,West,267,0.0,0.0,69,0.00,,,0.00,WeatherCatV1.12B45,2013-01-08 18:42:00,
2013-01-08 13:45:00,28.4,17.8,30.40,West,266,0.0,0.0,64,0.00,,,0.00,WeatherCatV1.12B45,2013-01-08 18:45:00,
2013-01-08 13:50:00,28.1,18.2,30.40,West,266,0.0,0.0,66,0.00,,,0.00,WeatherCatV1.12B45,2013-01-08 18:50:00,
2013-01-08 13:55:00,27.7,18.2,30.40,West,267,0.0,0.0,67,0.00,,,0.00,WeatherCatV1.12B45,2013-01-08 18:55:00,
2013-01-08 14:00:00,27.3,18.2,30.40,West,267,0.0,0.0,68,0.00,,,0.00,WeatherCatV1.12B45,2013-01-08 19:00:00,
2013-01-08 14:05:00,29.0,17.6,30.39,West,266,0.0,0.0,62,0.00,,,0.00,WeatherCatV1.12B45,2013-01-08 19:05:00,
2013-01-08 14:10:00,28.7,17.7,30.40,West,266,0.0,0.0,63,0.00,,,0.00,WeatherCatV1.12B45,2013-01-08 19:10:00,
2013-01-08 14:12:00,27.0,18.2,30.40,West,267,0.0,0.0,69,0.00,,,0.00,WeatherCatV1.12B45,2013-01-08 19:12:00,
2013-01-08 14:15:00,28.4,17.8,30.40,West,266,0.0,0.0,64,0.00,,,0.00,WeatherCatV1.12B45,2013-01-08 19:15:00,
2013-01-08 14:20:00,28.1,18.2,30.40,West,266,0.0,0.0,66,0.00,,,0.00,WeatherCatV1.12B45,2013-01-08 19:20:00,
2013-01-08 14:25:00,27.7,18.2,30.40,West,267,0.0,0.0,67,0.00,,,0.00,WeatherCatV1.12B45,2013-01-08 19:25:00,
2013-01-08 14:30:00,27.3,18.2,30.40,West,267,0.0,0.0,68,0.00,,,0.00,WeatherCatV1.12B45,2013-01-08 19:30:00,
2013-01-08 14:35:00,29.0,17.6,30.39,West,266,0.0,0.0,62,0.00,,,0.00,WeatherCatV1.12B45,2013-01-08 19:35:00,
2013-01-08 14:40:00,28.7,17.7,30.40,West,266,0.0,0.0,63,0.00,,,0.00,WeatherCatV1.12B45,2013-01-08 19:40:00,
2013-01-08 14:42:00,27.0,18.2,30.40,West,267,0.0,0.0,69,0.00,,,0.00,WeatherCatV1.12B45,2013-01-08 19:42:00,
2013-01-08 14:45:00,28.4,18.2,30.40,West,266,0.0,0.0,65,0.00,,,0.00,WeatherCatV1.12B45,2013-01-08 19:45:00,
2013-01-08 14:50:00,28.1,18.2,30.40,West,266,0.0,0.0,66,0.00,,,0.00,WeatherCatV1.12B45,2013-01-08 19:50:00,
2013-01-08 14:55:00,27.7,18.2,30.40,West,267,0.0,0.0,67,0.00,,,0.00,WeatherCatV1.12B45,2013-01-08 19:55:00,
2013-01-08 15:00:00,27.3,18.2,30.40,West,267,0.0,0.0,68,0.00,,,0.00,WeatherCatV1.12B45,2013-01-08 20:00:00,
2013-01-08 15:05:00,29.0,17.6,30.39,West,266,0.0,0.0,62,0.00,,,0.00,WeatherCatV1.12B45,2013-01-08 20:05:00,
2013-01-08 15:10:00,28.7,17.7,30.40,West,266,0.0,0.0,63,0.00,,,0.00,WeatherCatV1.12B45,2013-01-08 20:10:00,
2013-01-08 15:12:00,27.0,18.2,30.40,West,267,0.0,0.0,69,0.00,,,0.00,WeatherCatV1.12B45,2013-01-08 20:12:00,
2013-01-08 15:15:00,28.4,18.2,30.40,West,266,0.0,0.0,65,0.00,,,0.00,WeatherCatV1.12B45,2013-01-08 20:15:00,
2013-01-08 15:20:00,28.1,18.2,30.40,West,266,0.0,0.0,66,0.00,,,0.00,WeatherCatV1.12B45,2013-01-08 20:20:00,
2013-01-08 15:25:00,27.7,18.2,30.40,West,267,0.0,0.0,67,0.00,,,0.00,WeatherCatV1.12B45,2013-01-08 20:25:00,
2013-01-08 15:30:00,27.2,18.1,30.40,West,267,0.0,0.0,68,0.00,,,0.00,WeatherCatV1.12B45,2013-01-08 20:30:00,
2013-01-08 15:35:00,29.0,17.6,30.39,West,266,0.0,0.0,62,0.00,,,0.00,WeatherCatV1.12B45,2013-01-08 20:35:00,
2013-01-08 15:40:00,28.7,17.7,30.40,West,266,0.0,0.0,63,0.00,,,0.00,WeatherCatV1.12B45,2013-01-08 20:40:00,
2013-01-08 15:41:00,27.0,18.2,30.40,West,267,0.0,0.0,69,0.00,,,0.00,WeatherCatV1.12B45,2013-01-08 20:41:00,
2013-01-08 15:45:00,28.4,18.2,30.40,West,266,0.0,0.0,65,0.00,,,0.00,WeatherCatV1.12B45,2013-01-08 20:45:00,
2013-01-08 15:50:00,28.1,18.2,30.40,West,266,0.0,0.0,66,0.00,,,0.00,WeatherCatV1.12B45,2013-01-08 20:50:00,
2013-01-08 15:55:00,27.7,18.2,30.40,West,267,0.0,0.0,67,0.00,,,0.00,WeatherCatV1.12B45,2013-01-08 20:55:00,
2013-01-08 16:00:00,27.2,18.1,30.40,West,267,0.0,0.0,68,0.00,,,0.00,WeatherCatV1.12B45,2013-01-08 21:00:00,
2013-01-08 16:05:00,29.0,17.6,30.39,West,266,0.0,0.0,62,0.00,,,0.00,WeatherCatV1.12B45,2013-01-08 21:05:00,
2013-01-08 16:10:00,28.7,17.7,30.40,West,266,0.0,0.0,63,0.00,,,0.00,WeatherCatV1.12B45,2013-01-08 21:10:00,
2013-01-08 16:11:00,27.0,18.2,30.40,West,267,0.0,0.0,69,0.00,,,0.00,WeatherCatV1.12B45,2013-01-08 21:11:00,
2013-01-08 16:15:00,28.4,18.2,30.40,West,266,0.0,0.0,65,0.00,,,0.00,WeatherCatV1.12B45,2013-01-08 21:15:00,
2013-01-08 16:20:00,28.1,18.2,30.40,West,266,0.0,0.0,66,0.00,,,0.00,WeatherCatV1.12B45,2013-01-08 21:20:00,
2013-01-08 16:25:00,27.7,18.2,30.40,West,267,0.0,0.0,67,0.00,,,0.00,WeatherCatV1.12B45,2013-01-08 21:25:00,
2013-01-08 16:30:00,27.2,18.1,30.40,West,267,0.0,0.0,68,0.00,,,0.00,WeatherCatV1.12B45,2013-01-08 21:30:00,
2013-01-08 16:35:00,29.0,17.6,30.39,West,266,0.0,0.0,62,0.00,,,0.00,WeatherCatV1.12B45,2013-01-08 21:35:00,
2013-01-08 16:40:00,28.7,17.7,30.40,West,266,0.0,0.0,63,0.00,,,0.00,WeatherCatV1.12B45,2013-01-08 21:40:00,
2013-01-08 16:41:00,27.0,18.2,30.40,West,267,0.0,0.0,69,0.00,,,0.00,WeatherCatV1.12B45,2013-01-08 21:41:00,
2013-01-08 16:45:00,28.4,18.2,30.40,West,266,0.0,0.0,65,0.00,,,0.00,WeatherCatV1.12B45,2013-01-08 21:45:00,
2013-01-08 16:50:00,28.1,18.2,30.40,West,266,0.0,0.0,66,0.00,,,0.00,WeatherCatV1.12B45,2013-01-08 21:50:00,
2013-01-08 16:55:00,27.7,18.2,30.40,West,267,0.0,0.0,67,0.00,,,0.00,WeatherCatV1.12B45,2013-01-08 21:55:00,
2013-01-08 17:00:00,27.2,18.1,30.40,West,267,0.0,0.0,68,0.00,,,0.00,WeatherCatV1.12B45,2013-01-08 22:00:00,
2013-01-08 17:05:00,29.0,17.6,30.39,West,266,0.0,0.0,62,0.00,,,0.00,WeatherCatV1.12B45,2013-01-08 22:05:00,
2013-01-08 17:10:00,28.7,17.7,30.40,West,266,0.0,0.0,63,0.00,,,0.00,WeatherCatV1.12B45,2013-01-08 22:10:00,
2013-01-08 17:11:00,27.0,18.2,30.40,West,267,0.0,0.0,69,0.00,,,0.00,WeatherCatV1.12B45,2013-01-08 22:11:00,
2013-01-08 17:15:00,28.4,18.2,30.40,West,266,0.0,0.0,65,0.00,,,0.00,WeatherCatV1.12B45,2013-01-08 22:15:00,
2013-01-08 17:20:00,28.1,18.2,30.40,West,266,0.0,0.0,66,0.00,,,0.00,WeatherCatV1.12B45,2013-01-08 22:20:00,
2013-01-08 17:25:00,27.7,18.2,30.40,West,267,0.0,0.0,67,0.00,,,0.00,WeatherCatV1.12B45,2013-01-08 22:25:00,
2013-01-08 17:30:00,27.2,18.1,30.40,West,267,0.0,0.0,68,0.00,,,0.00,WeatherCatV1.12B45,2013-01-08 22:30:00,
2013-01-08 17:35:00,28.9,17.5,30.40,West,266,0.0,0.0,62,0.00,,,0.00,WeatherCatV1.12B45,2013-01-08 22:35:00,
2013-01-08 17:40:00,28.7,17.7,30.40,West,266,0.0,0.0,63,0.00,,,0.00,WeatherCatV1.12B45,2013-01-08 22:40:00,
2013-01-08 17:41:00,27.0,18.2,30.40,West,267,0.0,0.0,69,0.00,,,0.00,WeatherCatV1.12B45,2013-01-08 22:41:00,
2013-01-08 17:45:00,28.4,18.2,30.40,West,266,0.0,0.0,65,0.00,,,0.00,WeatherCatV1.12B45,2013-01-08 22:45:00,
2013-01-08 17:50:00,28.1,18.2,30.40,West,266,0.0,0.0,66,0.00,,,0.00,WeatherCatV1.12B45,2013-01-08 22:50:00,
2013-01-08 17:55:00,27.7,18.2,30.40,West,267,0.0,0.0,67,0.00,,,0.00,WeatherCatV1.12B45,2013-01-08 22:55:00,
2013-01-08 18:00:00,27.2,18.1,30.40,West,267,0.0,0.0,68,0.00,,,0.00,WeatherCatV1.12B45,2013-01-08 23:00:00,
2013-01-08 18:10:00,28.7,17.7,30.40,West,266,0.0,0.0,63,0.00,,,0.00,WeatherCatV1.12B45,2013-01-08 23:10:00,
2013-01-08 18:11:00,27.0,18.2,30.40,West,267,0.0,0.0,69,0.00,,,0.00,WeatherCatV1.12B45,2013-01-08 23:11:00,
2013-01-08 18:15:00,28.4,17.8,30.40,West,266,0.0,0.0,64,0.00,,,0.00,WeatherCatV1.12B45,2013-01-08 23:15:00,
2013-01-08 18:20:00,28.1,18.2,30.40,West,266,0.0,0.0,66,0.00,,,0.00,WeatherCatV1.12B45,2013-01-08 23:20:00,
2013-01-08 18:25:00,27.8,18.3,30.40,West,267,0.0,0.0,67,0.00,,,0.00,WeatherCatV1.12B45,2013-01-08 23:25:00,
2013-01-08 18:30:00,27.4,18.3,30.40,West,267,0.0,0.0,68,0.00,,,0.00,WeatherCatV1.12B45,2013-01-08 23:30:00,
2013-01-08 18:40:00,28.7,17.7,30.40,West,266,0.0,0.0,63,0.00,,,0.00,WeatherCatV1.12B45,2013-01-08 23:40:00,
2013-01-08 18:43:00,27.0,18.2,30.40,West,267,0.0,0.0,69,0.00,,,0.00,WeatherCatV1.12B45,2013-01-08 23:43:00,
2013-01-08 18:45:00,28.4,17.8,30.40,West,266,0.0,0.0,64,0.00,,,0.00,WeatherCatV1.12B45,2013-01-08 23:45:00,
2013-01-08 18:50:00,28.1,18.2,30.40,West,266,0.0,0.0,66,0.00,,,0.00,WeatherCatV1.12B45,2013-01-08 23:50:00,
2013-01-08 18:55:00,27.7,18.2,30.40,West,267,0.0,0.0,67,0.00,,,0.00,WeatherCatV1.12B45,2013-01-08 23:55:00,
2013-01-08 19:00:00,27.4,18.3,30.40,West,267,0.0,0.0,68,0.00,,,0.00,WeatherCatV1.12B45,2013-01-09 00:00:00,
2013-01-08 19:10:00,28.7,17.7,30.40,West,266,0.0,0.0,63,0.00,,,0.00,WeatherCatV1.12B45,2013-01-09 00:10:00,
2013-01-08 19:13:00,27.0,18.2,30.40,West,267,0.0,0.0,69,0.00,,,0.00,WeatherCatV1.12B45,2013-01-09 00:13:00,
2013-01-08 19:15:00,28.4,17.8,30.40,West,266,0.0,0.0,64,0.00,,,0.00,WeatherCatV1.12B45,2013-01-09 00:15:00,
2013-01-08 19:20:00,28.1,18.2,30.40,West,266,0.0,0.0,66,0.00,,,0.00,WeatherCatV1.12B45,2013-01-09 00:20:00,
2013-01-08 19:25:00,27.7,18.2,30.40,West,267,0.0,0.0,67,0.00,,,0.00,WeatherCatV1.12B45,2013-01-09 00:25:00,
2013-01-08 19:30:00,27.3,18.2,30.40,West,267,0.0,0.0,68,0.00,,,0.00,WeatherCatV1.12B45,2013-01-09 00:30:00,
2013-01-08 19:40:00,28.7,17.7,30.40,West,266,0.0,0.0,63,0.00,,,0.00,WeatherCatV1.12B45,2013-01-09 00:40:00,
2013-01-08 19:42:00,27.0,18.2,30.40,West,267,0.0,0.0,69,0.00,,,0.00,WeatherCatV1.12B45,2013-01-09 00:42:00,
2013-01-08 19:45:00,28.4,17.8,30.40,West,266,0.0,0.0,64,0.00,,,0.00,WeatherCatV1.12B45,2013-01-09 00:45:00,
2013-01-08 19:50:00,28.1,18.2,30.40,West,266,0.0,0.0,66,0.00,,,0.00,WeatherCatV1.12B45,2013-01-09 00:50:00,
2013-01-08 19:55:00,27.7,18.2,30.40,West,267,0.0,0.0,67,0.00,,,0.00,WeatherCatV1.12B45,2013-01-09 00:55:00,
2013-01-08 20:00:00,27.3,18.2,30.40,West,267,0.0,0.0,68,0.00,,,0.00,WeatherCatV1.12B45,2013-01-09 01:00:00,
2013-01-08 20:10:00,28.7,17.7,30.40,West,266,0.0,0.0,63,0.00,,,0.00,WeatherCatV1.12B45,2013-01-09 01:10:00,
2013-01-08 20:12:00,27.0,18.2,30.40,West,267,0.0,0.0,69,0.00,,,0.00,WeatherCatV1.12B45,2013-01-09 01:12:00,
2013-01-08 20:15:00,28.4,17.8,30.40,West,266,0.0,0.0,64,0.00,,,0.00,WeatherCatV1.12B45,2013-01-09 01:15:00,
2013-01-08 20:20:00,28.1,18.2,30.40,West,266,0.0,0.0,66,0.00,,,0.00,WeatherCatV1.12B45,2013-01-09 01:20:00,
2013-01-08 20:25:00,27.7,18.2,30.40,West,267,0.0,0.0,67,0.00,,,0.00,WeatherCatV1.12B45,2013-01-09 01:25:00,
2013-01-08 20:30:00,27.3,18.2,30.40,West,267,0.0,0.0,68,0.00,,,0.00,WeatherCatV1.12B45,2013-01-09 01:30:00,
2013-01-08 20:40:00,28.7,17.7,30.40,West,266,0.0,0.0,63,0.00,,,0.00,WeatherCatV1.12B45,2013-01-09 01:40:00,
2013-01-08 20:42:00,27.0,18.2,30.40,West,267,0.0,0.0,69,0.00,,,0.00,WeatherCatV1.12B45,2013-01-09 01:42:00,
2013-01-08 20:45:00,28.4,17.8,30.40,West,266,0.0,0.0,64,0.00,,,0.00,WeatherCatV1.12B45,2013-01-09 01:45:00,
2013-01-08 20:50:00,28.1,18.2,30.40,West,266,0.0,0.0,66,0.00,,,0.00,WeatherCatV1.12B45,2013-01-09 01:50:00,
2013-01-08 20:55:00,27.7,18.2,30.40,West,267,0.0,0.0,67,0.00,,,0.00,WeatherCatV1.12B45,2013-01-09 01:55:00,
2013-01-08 21:00:00,27.3,18.2,30.40,West,267,0.0,0.0,68,0.00,,,0.00,WeatherCatV1.12B45,2013-01-09 02:00:00,
2013-01-08 21:10:00,28.7,17.7,30.40,West,266,0.0,0.0,63,0.00,,,0.00,WeatherCatV1.12B45,2013-01-09 02:10:00,
2013-01-08 21:12:00,27.0,18.2,30.40,West,267,0.0,0.0,69,0.00,,,0.00,WeatherCatV1.12B45,2013-01-09 02:12:00,
2013-01-08 21:15:00,28.4,17.8,30.40,West,266,0.0,0.0,64,0.00,,,0.00,WeatherCatV1.12B45,2013-01-09 02:15:00,
2013-01-08 21:20:00,28.1,18.2,30.40,West,266,0.0,0.0,66,0.00,,,0.00,WeatherCatV1.12B45,2013-01-09 02:20:00,
2013-01-08 21:25:00,27.7,18.2,30.40,West,267,0.0,0.0,67,0.00,,,0.00,WeatherCatV1.12B45,2013-01-09 02:25:00,
2013-01-08 21:30:00,27.3,18.2,30.40,West,267,0.0,0.0,68,0.00,,,0.00,WeatherCatV1.12B45,2013-01-09 02:30:00,
2013-01-08 21:40:00,28.7,17.7,30.40,West,266,0.0,0.0,63,0.00,,,0.00,WeatherCatV1.12B45,2013-01-09 02:40:00,
2013-01-08 21:42:00,27.0,18.2,30.40,West,267,0.0,0.0,69,0.00,,,0.00,WeatherCatV1.12B45,2013-01-09 02:42:00,
2013-01-08 21:45:00,28.4,17.8,30.40,West,266,0.0,0.0,64,0.00,,,0.00,WeatherCatV1.12B45,2013-01-09 02:45:00,
2013-01-08 21:50:00,28.1,18.2,30.40,West,266,0.0,0.0,66,0.00,,,0.00,WeatherCatV1.12B45,2013-01-09 02:50:00,
2013-01-08 21:55:00,27.7,18.2,30.40,West,267,0.0,0.0,67,0.00,,,0.00,WeatherCatV1.12B45,2013-01-09 02:55:00,
2013-01-08 22:00:00,27.3,18.2,30.40,West,267,0.0,0.0,68,0.00,,,0.00,WeatherCatV1.12B45,2013-01-09 03:00:00,
2013-01-08 22:05:00,29.0,17.6,30.39,West,266,0.0,0.0,62,0.00,,,0.00,WeatherCatV1.12B45,2013-01-09 03:05:00,
2013-01-08 22:10:00,28.7,17.7,30.40,West,266,0.0,0.0,63,0.00,,,0.00,WeatherCatV1.12B45,2013-01-09 03:10:00,
2013-01-08 22:12:00,27.0,18.2,30.40,West,267,0.0,0.0,69,0.00,,,0.00,WeatherCatV1.12B45,2013-01-09 03:12:00,
2013-01-08 22:15:00,28.4,18.2,30.40,West,266,0.0,0.0,65,0.00,,,0.00,WeatherCatV1.12B45,2013-01-09 03:15:00,
2013-01-08 22:20:00,28.1,18.2,30.40,West,266,0.0,0.0,66,0.00,,,0.00,WeatherCatV1.12B45,2013-01-09 03:20:00,
2013-01-08 22:25:00,27.7,18.2,30.40,West,267,0.0,0.0,67,0.00,,,0.00,WeatherCatV1.12B45,2013-01-09 03:25:00,
2013-01-08 22:30:00,27.3,18.2,30.40,West,267,0.0,0.0,68,0.00,,,0.00,WeatherCatV1.12B45,2013-01-09 03:30:00,
2013-01-08 22:35:00,29.0,17.6,30.39,West,266,0.0,0.0,62,0.00,,,0.00,WeatherCatV1.12B45,2013-01-09 03:35:00,
2013-01-08 22:40:00,28.7,17.7,30.40,West,266,0.0,0.0,63,0.00,,,0.00,WeatherCatV1.12B45,2013-01-09 03:40:00,
2013-01-08 22:42:00,27.0,18.2,30.40,West,267,0.0,0.0,69,0.00,,,0.00,WeatherCatV1.12B45,2013-01-09 03:42:00,
2013-01-08 22:45:00,28.4,18.2,30.40,West,266,0.0,0.0,65,0.00,,,0.00,WeatherCatV1.12B45,2013-01-09 03:45:00,
2013-01-08 22:50:00,28.1,18.2,30.40,West,266,0.0,0.0,66,0.00,,,0.00,WeatherCatV1.12B45,2013-01-09 03:50:00,
2013-01-08 22:55:00,27.7,18.2,30.40,West,267,0.0,0.0,67,0.00,,,0.00,WeatherCatV1.12B45,2013-01-09 03:55:00,
2013-01-08 23:00:00,27.2,18.1,30.40,West,267,0.0,0.0,68,0.00,,,0.00,WeatherCatV1.12B45,2013-01-09 04:00:00,
2013-01-08 23:05:00,29.0,17.6,30.39,West,266,0.0,0.0,62,0.00,,,0.00,WeatherCatV1.12B45,2013-01-09 04:05:00,
2013-01-08 23:10:00,28.7,17.7,30.40,West,266,0.0,0.0,63,0.00,,,0.00,WeatherCatV1.12B45,2013-01-09 04:10:00,
2013-01-08 23:12:00,27.0,18.2,30.40,West,267,0.0,0.0,69,0.00,,,0.00,WeatherCatV1.12B45,2013-01-09 04:12:00,
2013-01-08 23:15:00,28.4,18.2,30.40,West,266,0.0,0.0,65,0.00,,,0.00,WeatherCatV1.12B45,2013-01-09 04:15:00,
2013-01-08 23:20:00,28.1,18.2,30.40,West,266,0.0,0.0,66,0.00,,,0.00,WeatherCatV1.12B45,2013-01-09 04:20:00,
2013-01-08 23:25:00,27.7,18.2,30.40,West,267,0.0,0.0,67,0.00,,,0.00,WeatherCatV1.12B45,2013-01-09 04:25:00,
2013-01-08 23:30:00,27.2,18.1,30.40,West,267,0.0,0.0,68,0.00,,,0.00,WeatherCatV1.12B45,2013-01-09 04:30:00,
2013-01-08 23:35:00,29.0,17.6,30.39,West,266,0.0,0.0,62,0.00,,,0.00,WeatherCatV1.12B45,2013-01-09 04:35:00,
2013-01-08 23:40:00,28.7,17.7,30.40,West,266,0.0,0.0,63,0.00,,,0.00,WeatherCatV1.12B45,2013-01-09 04:40:00,
2013-01-08 23:41:00,27.0,18.2,30.40,West,267,0.0,0.0,69,0.00,,,0.00,WeatherCatV1.12B45,2013-01-09 04:41:00,
2013-01-08 23:45:00,28.4,18.2,30.40,West,266,0.0,0.0,65,0.00,,,0.00,WeatherCatV1.12B45,2013-01-09 04:45:00,
2013-01-08 23:50:00,28.1,18.2,30.40,West,266,0.0,0.0,66,0.00,,,0.00,WeatherCatV1.12B45,2013-01-09 04:50:00,
2013-01-08 23:55:00,27.7,18.2,30.40,West,267,0.0,0.0,67,0.00,,,0.00,WeatherCatV1.12B45,2013-01-09 04:55:00,